Location: Austin
(30.3000°N, 97.7500°W)
Time: 06:36:51
(UTC-05:00)

Cosmos 2084 - Pass Details

Date: 16 June 2025
Orbit: 515 x 595 km, 62.8° (Epoch: 08 July)

Event Time Altitude Azimuth Distance (km) Brightness Sun altitude
Rises 05:28:54 0° 329° (NNW) 2,644 6.9 -11.8°
Reaches altitude 10° 05:31:06 10° 328° (NNW) 1,747 5.9 -11.4°
Maximum altitude 05:35:00 79° 241° (WSW) 527 3.1 -10.8°
Drops below altitude 10° 05:38:52 10° 155° (SSE) 1,731 5.8 -10.1°
Sets 05:41:02 0° 154° (SSE) 2,617 6.7 -9.7°
